This is the latest recevied weather packets stored in our database for station/object N0MPM-4. If no packets are shown the sender has not sent any weather packets the latest 10 day(s).
| Time | Temp. | Humidity | Pressure | Rain* | Wind** | Luminosity | Snow |
|---|---|---|---|---|---|---|---|
| 1777611610 | 4.44° C | 69% | 1018.5 hPa | 0 mm | - | - | - |
| 1777611310 | 4.44° C | 70% | 1018.5 hPa | 0 mm | - | - | - |
| 1777611010 | 3.89° C | 73% | 1018.5 hPa | 0 mm | - | - | - |
| 1777610710 | 3.89° C | 74% | 1018.4 hPa | 0 mm | - | - | - |
| 1777610410 | 3.89° C | 73% | 1018.4 hPa | 0 mm | - | - | - |
| 1777610110 | 3.89° C | 72% | 1018.4 hPa | 0 mm | - | - | - |
| 1777609810 | 3.89° C | 71% | 1018.4 hPa | 0 mm | - | - | - |
| 1777609510 | 3.89° C | 71% | 1018.4 hPa | 0 mm | - | - | - |
| 1777609210 | 4.44° C | 72% | 1018.4 hPa | 0 mm | - | - | - |
| 1777608910 | 4.44° C | 72% | 1018.4 hPa | 0 mm | - | - | - |
| 1777608610 | 4.44° C | 69% | 1018.4 hPa | 0 mm | - | - | - |
| 1777608310 | 4.44° C | 67% | 1018.4 hPa | 0 mm | - | - | - |
| 1777608010 | 5° C | 67% | 1018.5 hPa | 0 mm | - | - | - |
| 1777607710 | 5° C | 67% | 1018.5 hPa | 0 mm | - | - | - |
| 1777607410 | 5.56° C | 66% | 1018.5 hPa | 0 mm | - | - | - |
| 1777607110 | 5.56° C | 66% | 1018.5 hPa | 0 mm | - | - | - |
| 1777606810 | 5.56° C | 65% | 1018.6 hPa | 0 mm | - | - | - |
| 1777606510 | 6.11° C | 64% | 1018.6 hPa | 0 mm | - | - | - |
| 1777606210 | 6.11° C | 63% | 1018.6 hPa | 0 mm | - | - | - |
| 1777605910 | 6.11° C | 61% | 1018.6 hPa | 0 mm | - | - | - |
| 1777605610 | 6.67° C | 61% | 1018.6 hPa | 0 mm | - | - | - |
| 1777605310 | 6.67° C | 61% | 1018.6 hPa | 0 mm | - | - | - |
| 1777605010 | 7.22° C | 58% | 1018.6 hPa | 0 mm | - | - | - |
| 1777604710 | 7.22° C | 56% | 1018.6 hPa | 0 mm | - | - | - |
| 1777604410 | 7.22° C | 55% | 1018.6 hPa | 0 mm | - | - | - |
* Rain latest hour (hover to see other rain measurements)
** Current wind speed in m/s (hover to see current wind gust speed)